Wetbulb
27.83 28.92 28.38 28.17 28.89 27.74 26.56 26.22 25.97 26.06 25.99 25.53 25.33 24.99 25.02 25.16 25.48 24.68 24.25 24.05 22.99 22.84 23.21 22.68 22.07 22.35 20.96 20.56 20.74 19.47 18.73 18.24 16.25 19.85 20.48 20.39 19.12 18.76 19.31 18.01 18.38 17.98 17.81
26.82 26.52 26.24 25.97 26.48 24.66 24.04 24.37 24.90 24.12 24.82 24.53 24.57 24.18 23.80 23.41 23.43 22.66 21.75 21.80 20.96 20.35 20.41 19.69 19.00 21.20 19.20 18.92 17.91 16.07 16.32 17.25 15.25 13.88 16.45 16.39 16.81 17.77 15.90 14.06 16.35 17.98 16.04
25.79 25.77 25.27 24.93 24.34 23.83 23.78 23.82 23.77 23.22 22.84 22.84 22.54 21.63 21.28 21.53 21.38 21.10 20.18 19.02 17.86 17.40 16.86 16.67 16.20 15.97 15.73 16.43 15.65 15.95 16.83 17.91 15.83 14.62 14.08 16.99 15.86 15.46 13.07 13.62 13.24 13.58 15.81
24.53 24.30 23.80 23.79 23.85 24.01 24.36 24.32 24.22 23.63 21.98 20.80 20.22 19.58 19.20 18.89 18.55 17.97 17.38 16.75 16.58 16.31 16.61 16.76 17.21 17.89 17.68 17.18 17.22 16.07 15.35 14.52 14.28 12.90 12.85 11.72 11.64 12.48 10.64 8.40 8.16 11.12 10.19
23.77 23.65 23.53 23.92 24.01 23.90 23.50 23.55 23.63 23.21 22.84 22.59 21.56 20.64 19.38 19.11 18.85 16.71 16.54 15.56 15.06 14.80 15.84 16.70 17.09 19.10 21.36 20.22 17.24 15.31 14.04 13.11 12.10 10.66 9.01 8.02 7.78 7.03 6.07 8.10 7.36 8.14 8.86
22.41 22.15 22.60 22.39 22.21 22.00 22.25 22.60 22.66 21.84 21.40 22.18 21.57 20.78 20.52 22.38 24.09 22.05 17.71 15.43 15.40 15.05 14.31 15.27 16.66 17.05 19.02 19.24 18.58 17.53 15.94 12.92 10.95 8.92 7.19 5.79 6.00 6.25 7.59 7.79 7.09 4.68 1.98
20.31 20.29 20.55 20.53 19.77 19.72 19.70 19.63 19.42 19.79 21.45 20.38 20.25 20.18 20.06 21.58 24.11 22.55 20.35 16.34 14.44 13.71 13.02 13.61 15.00 16.30 18.12 15.05 15.02 14.53 13.92 15.60 15.53 11.32 6.97 6.36 5.33 7.19 8.65 7.25 6.20 5.32 4.40
17.40 17.99 18.77 18.51 17.81 17.84 17.52 17.15 17.35 17.81 17.91 18.83 19.86 21.03 20.95 21.71 23.64 22.01 19.61 16.27 14.77 13.27 12.25 12.21 12.97 14.75 17.51 16.93 12.02 10.15 10.24 11.25 12.39 12.16 10.00 8.59 9.55 11.10 10.36 8.97 7.61 5.99 4.59
15.38 15.66 16.13 16.50 15.93 16.14 15.55 15.43 16.08 16.60 16.67 16.78 17.68 17.75 19.76 21.19 23.39 21.68 18.15 15.46 14.03 12.53 12.72 11.71 12.07 14.67 18.79 19.38 11.03 7.99 8.54 10.76 12.11 14.53 13.82 14.20 14.80 14.91 13.25 8.70 1.36 -0.79 -1.93
14.81 15.22 15.86 16.14 15.44 14.52 15.09 15.28 16.38 16.74 16.50 16.60 16.26 16.37 16.75 17.98 23.47 22.69 18.17 14.70 11.65 11.13 11.15 10.96 14.53 16.62 18.00 17.77 10.92 7.30 6.93 9.57 5.17 4.49 2.66 4.43 6.83 5.34 10.86 5.75 2.82 -2.56 -2.18
15.55 15.61 15.44 15.41 14.81 14.87 14.79 15.04 14.88 14.64 14.81 14.07 13.94 14.23 14.60 16.18 18.59 21.76 20.79 15.49 11.34 9.72 8.91 7.97 9.41 16.82 16.59 16.29 14.85 8.07 11.19 10.45 2.19 -1.91 -1.46 -0.81 0.36 1.67 3.14 4.24 4.11 1.53 -1.34
13.08 13.06 12.95 13.18 15.18 14.25 11.30 13.06 12.27 11.50 10.88 10.30 9.60 11.49 13.04 14.02 19.32 19.77 19.91 19.07 16.84 9.92 8.71 7.87 9.08 15.33 14.71 13.85 10.67 14.18 13.23 6.47 -3.47 -4.57 -4.84 -3.00 -1.10 0.23 2.30 3.21 3.19 2.75 3.17
9.54 8.04 9.38 10.99 13.96 13.87 10.13 10.87 11.03 9.03 8.25 8.93 9.35 7.52 8.67 12.25 13.27 17.49 17.96 17.62 16.77 10.85 11.29 11.04 12.18 12.48 11.41 7.54 8.71 11.09 2.88 -1.84 -3.25 -5.39 -4.49 -2.96 -0.71 0.64 0.76 1.00 2.99 3.59 3.74
6.02 7.41 8.49 9.48 9.88 10.28 13.30 13.29 9.00 7.76 7.66 9.11 7.49 4.62 4.67 8.64 11.99 12.88 14.01 10.84 13.90 10.70 6.44 -0.62 6.78 6.92 6.38 6.31 -0.58 1.11 -0.38 -1.39 -3.60 -4.75 -3.98 -1.61 -0.52 -0.25 -0.32 1.69 0.30 1.16 0.41
6.51 7.59 7.24 6.83 5.40 7.52 10.54 9.67 12.24 13.20 11.25 4.81 3.54 3.44 -0.82 2.25 14.16 19.16 18.49 14.17 12.18 13.46 -4.21 -11.83 -10.87 -7.39 -4.23 -3.74 -3.51 -3.48 -2.93 -2.89 -3.66 -2.43 -3.06 -3.07 -2.41 -1.50 -0.83 1.14 0.35 -0.07 -2.23
6.62 6.02 5.01 5.68 4.14 5.19 4.38 4.13 16.28 17.83 18.83 18.75 18.19 13.48 11.53 17.32 19.44 19.94 20.16 20.14 16.98 13.64 -15.38 -17.39 -8.07 -6.63 -6.43 -6.13 -6.35 -5.98 -4.57 -4.34 -3.49 -3.42 -4.09 -3.82 -3.47 -2.91 -2.33 -0.80 0.14 -0.48 -1.66
3.34 3.99 2.75 3.97 2.03 -0.14 -0.98 -1.44 -1.48 3.22 14.02 14.06 15.42 16.15 16.59 16.61 18.01 18.81 18.73 17.83 11.70 2.69 -18.51 -17.04 -12.52 -9.20 -8.70 -7.76 -7.49 -7.41 -7.60 -5.40 -4.80 -5.25 -4.85 -4.31 -3.43 -3.14 -2.78 -2.15 -1.46 -0.44 -0.23
-3.89 0.74 0.86 -0.17 -1.49 -4.68 -4.24 -4.76 -6.77 -7.01 -6.19 -4.64 4.96 11.12 12.62 14.98 16.39 16.77 15.98 5.12 -9.73 -9.60 -20.49 -19.78 -12.90 -11.21 -10.26 -9.82 -8.91 -8.79 -7.87 -7.18 -6.66 -5.97 -5.49 -4.53 -4.07 -4.06 -3.64 -2.61 -0.57 -0.52 -0.18
-0.55 -1.82 -2.89 -5.60 -6.36 -3.95 -5.97 -7.43 -8.33 -8.81 -8.97 -10.32 -10.42 1.44 -0.43 10.15 12.41 11.34 8.36 -14.27 -16.26 -9.70 -9.24 -11.84 -15.47 -12.70 -10.78 -9.97 -9.53 -9.26 -9.38 -9.15 -8.04 -7.91 -6.91 -4.77 -3.30 -2.58 -2.38 -1.16 -0.25 0.69 1.44
-5.30 -1.22 -3.65 -4.77 -7.82 -7.57 -5.75 -6.19 -7.30 -7.90 -8.33 -9.74 -9.25 -7.29 -7.50 -8.05 -4.92 -8.83 -16.54 -19.60 -18.10 -13.22 -11.67 -13.36 -10.50 -12.06 -12.07 -10.55 -10.06 -9.73 -9.95 -9.29 -8.21 -6.82 -5.06 -3.49 -2.39 -1.17 -1.24 -0.39 0.93 1.34 1.82
0.56 -0.92 -2.26 -7.29 -6.64 -5.13 -7.92 -6.06 -8.21 -10.72 -10.43 -12.30 -10.29 -9.11 10.88 -6.18 -8.29 -11.97 -8.76 -9.10 -10.87 -9.73 -10.31 -10.39 -10.82 -10.42 -10.33 -9.91 -9.71 -10.06 -9.80 -8.97 -7.65 -6.29 -4.10 -3.04 -1.19 -1.08 1.35 1.77 2.25 2.63 3.12
1.06 0.38 -3.78 -2.50 -5.90 -7.61 -8.84 -4.13 -5.06 -11.19 -12.17 -11.64 -7.46 -9.87 8.76 -11.92 -10.51 -9.82 -9.64 -9.31 -8.55 -10.41 -10.50 -11.87 -11.28 -11.38 -10.33 -10.33 -9.94 -9.94 -10.21 -9.09 -6.92 -4.38 -2.84 -1.31 -0.36 0.30 1.56 2.04 2.29 3.44 6.09
-0.07 -3.07 -5.77 -8.91 -6.53 -7.43 -9.28 -3.41 -1.98 -7.00 -10.26 -10.00 -9.84 -7.67 -10.21 -9.97 -9.95 -10.88 -9.32 -7.85 -8.61 -9.19 -9.79 -15.41 -14.17 -11.39 -9.27 -8.96 -8.45 -8.75 -9.43 -7.44 -4.47 -2.70 -3.93 -2.79 -0.81 0.55 1.59 2.55 6.41 10.70 10.58
0.43 -0.76 0.06 -0.42 -1.87 -0.87 0.06 0.93 -1.19 -5.39 -6.35 -6.10 -7.24 -7.18 -6.87 -6.13 -8.49 -9.50 -8.68 -8.03 -10.00 -9.64 -10.85 -11.94 -11.66 -12.04 -10.65 -9.20 -7.75 -7.13 -5.46 -4.43 -2.22 -1.18 -1.51 -1.23 -0.42 2.97 7.57 11.95 11.34 11.28 11.33
3.65 2.55 1.59 2.00 1.73 2.57 3.82 3.62 2.29 -1.49 -1.74 -2.06 -3.59 -4.52 -4.31 -7.21 -9.17 -9.67 -8.11 -9.69 -10.64 -10.56 -10.71 -10.79 -10.85 -11.17 -11.88 -9.45 -8.59 -7.72 -5.75 -3.77 -3.12 -0.84 3.10 7.28 10.45 12.79 12.70 12.15 11.91 11.78 12.06
4.33 4.62 4.97 5.41 5.06 5.47 5.30 5.10 4.81 2.89 2.25 3.05 -0.70 -2.35 -4.07 -5.95 -8.36 -9.58 -8.91 -10.67 -10.62 -10.08 -11.06 -9.82 -10.11 -12.00 -10.80 -8.10 -6.21 -2.72 0.48 5.56 7.69 11.06 13.97 15.22 13.82 12.91 12.79 12.27 12.26 12.96 14.78
MSLP
1016.96 1017.04 1016.68 1015.87 1015.34 1015.87 1015.75 1016.81 1017.48 1017.71 1018.06 1018.73 1019.19 1018.87 1019.83 1020.72 1021.45 1021.73 1022.71 1023.89 1024.10 1024.78 1024.91 1025.30 1025.94 1025.95 1026.51 1026.61 1025.95 1025.90 1026.13 1026.37 1026.39 1025.70 1025.79 1025.50 1025.41 1025.38 1025.16 1025.28 1024.75 1024.10 1023.58
1018.76 1019.02 1018.89 1017.63 1017.16 1016.80 1017.60 1018.56 1019.08 1019.15 1019.97 1020.38 1020.49 1020.77 1021.80 1022.33 1023.12 1023.53 1024.12 1025.49 1025.66 1026.05 1026.17 1026.40 1026.68 1026.84 1027.34 1027.58 1027.17 1026.96 1026.79 1027.11 1027.03 1026.74 1026.63 1026.20 1026.01 1025.82 1025.70 1025.41 1024.72 1024.15 1023.96
1020.37 1020.84 1020.76 1019.48 1017.93 1018.16 1019.29 1020.07 1020.49 1020.91 1021.09 1021.42 1021.74 1022.55 1023.14 1023.93 1024.47 1025.31 1025.85 1026.55 1027.05 1027.29 1027.27 1027.45 1027.92 1027.86 1028.05 1028.25 1027.82 1027.64 1027.66 1027.57 1027.51 1027.18 1026.76 1026.39 1026.30 1025.98 1025.50 1025.24 1024.81 1024.17 1023.50
1021.82 1021.89 1022.45 1020.59 1019.65 1020.43 1020.85 1021.49 1021.92 1022.41 1022.80 1022.94 1023.53 1024.47 1025.19 1025.41 1026.08 1026.51 1027.02 1027.76 1028.13 1028.10 1028.61 1028.73 1028.96 1029.02 1028.59 1028.44 1028.06 1027.94 1028.11 1028.07 1027.56 1027.51 1026.90 1026.67 1026.55 1026.12 1025.85 1025.42 1024.58 1023.82 1022.90
1023.94 1023.51 1023.11 1022.15 1021.72 1022.05 1022.60 1023.59 1024.26 1024.23 1024.81 1025.30 1025.32 1025.68 1026.31 1026.52 1027.27 1027.50 1028.24 1028.62 1029.08 1029.32 1030.06 1030.06 1029.99 1029.21 1028.25 1028.16 1028.37 1028.49 1028.44 1027.82 1027.99 1027.89 1027.63 1027.23 1026.41 1026.13 1026.08 1025.36 1024.54 1023.45 1022.41
1024.74 1024.77 1024.86 1023.71 1023.67 1024.16 1024.97 1025.66 1025.97 1026.35 1026.78 1026.85 1027.08 1027.48 1027.53 1027.93 1028.69 1029.17 1029.43 1030.02 1030.41 1030.62 1030.32 1030.38 1029.90 1029.61 1028.86 1028.94 1029.09 1028.77 1028.67 1028.14 1028.09 1028.21 1027.96 1027.64 1026.72 1026.79 1026.24 1025.29 1024.48 1023.68 1021.95
1026.56 1026.13 1025.30 1025.33 1025.71 1026.80 1026.64 1027.25 1027.91 1028.07 1028.26 1028.35 1028.48 1028.48 1028.36 1028.64 1028.86 1029.39 1029.42 1030.10 1030.65 1030.76 1030.66 1030.54 1030.14 1029.12 1028.87 1029.44 1029.34 1029.28 1028.94 1028.33 1028.12 1028.41 1028.32 1027.84 1027.12 1026.66 1025.75 1024.86 1024.22 1023.55 1022.00
1027.28 1027.35 1028.11 1027.88 1027.78 1027.75 1028.21 1029.01 1029.36 1029.56 1029.45 1029.36 1029.52 1029.44 1029.28 1029.55 1029.47 1029.94 1030.36 1030.44 1030.76 1030.94 1031.06 1030.56 1030.08 1029.72 1029.13 1029.07 1029.34 1029.24 1029.22 1028.54 1028.47 1028.58 1028.27 1027.75 1026.99 1026.07 1025.41 1024.92 1024.05 1022.90 1021.60
1029.74 1029.59 1028.96 1028.67 1028.92 1029.37 1029.68 1030.13 1030.42 1030.18 1030.25 1030.61 1030.60 1030.11 1030.31 1030.14 1030.21 1030.51 1030.89 1030.42 1030.74 1030.84 1031.28 1031.26 1031.07 1030.24 1028.98 1028.89 1029.39 1029.57 1029.34 1028.56 1028.59 1028.29 1027.87 1027.01 1026.36 1025.52 1025.34 1024.47 1023.69 1022.79 1020.23
1030.27 1029.86 1029.79 1029.71 1029.79 1030.18 1030.32 1031.04 1031.57 1030.89 1031.54 1031.75 1031.74 1031.87 1031.75 1031.58 1030.81 1030.39 1031.09 1031.52 1031.60 1031.39 1031.79 1032.13 1031.00 1029.87 1029.83 1029.48 1029.09 1029.45 1028.61 1028.09 1028.49 1028.30 1028.03 1026.84 1026.35 1025.84 1024.92 1024.26 1023.17 1022.56 1020.94
1030.67 1030.35 1030.44 1030.76 1031.01 1031.33 1031.47 1031.65 1031.60 1032.38 1032.87 1032.81 1032.98 1032.61 1032.57 1032.48 1031.14 1031.85 1031.94 1031.72 1031.29 1031.75 1032.49 1031.83 1031.45 1030.04 1029.41 1029.25 1029.20 1029.05 1028.05 1028.10 1028.76 1029.07 1027.90 1027.08 1026.17 1024.88 1023.88 1023.16 1022.74 1022.22 1020.11
1031.11 1031.09 1031.16 1031.35 1031.61 1031.93 1032.16 1032.65 1033.04 1033.17 1033.12 1033.01 1033.07 1033.39 1033.09 1032.73 1032.22 1032.53 1032.05 1031.10 1031.30 1032.61 1032.07 1031.45 1031.14 1030.08 1030.11 1029.83 1029.53 1028.28 1028.47 1029.66 1029.74 1028.82 1027.72 1026.65 1025.25 1023.99 1022.75 1022.20 1021.52 1020.46 1019.17
1031.81 1032.19 1032.48 1032.66 1032.93 1033.19 1033.26 1033.36 1033.37 1033.74 1034.20 1034.46 1034.24 1033.70 1033.31 1033.77 1033.66 1031.99 1031.65 1032.37 1032.24 1031.98 1031.67 1031.63 1031.23 1030.59 1030.07 1030.16 1030.15 1029.53 1029.95 1029.73 1028.90 1028.32 1027.27 1025.78 1024.60 1023.39 1022.52 1021.23 1019.86 1018.58 1017.07
1033.19 1033.53 1033.62 1033.59 1033.80 1033.93 1033.99 1033.99 1034.19 1034.29 1034.14 1034.16 1034.17 1034.35 1034.28 1033.52 1032.76 1032.60 1032.30 1032.35 1031.87 1031.59 1032.26 1032.72 1031.66 1031.44 1031.21 1030.57 1030.33 1029.72 1029.41 1029.00 1028.54 1027.63 1026.39 1025.04 1023.91 1022.78 1021.74 1020.40 1018.76 1016.80 1015.10
1033.94 1034.07 1034.28 1034.48 1034.58 1034.48 1034.24 1033.90 1033.66 1033.57 1033.66 1033.90 1034.03 1034.16 1034.09 1033.39 1032.36 1031.55 1031.29 1031.46 1031.50 1031.39 1032.85 1033.44 1033.04 1032.13 1031.41 1030.85 1030.25 1029.56 1029.03 1028.52 1027.85 1026.93 1025.98 1024.85 1023.52 1022.14 1020.34 1018.91 1017.59 1015.92 1014.51
1034.66 1034.92 1035.00 1035.07 1035.08 1035.06 1034.94 1034.65 1033.70 1033.34 1033.16 1033.14 1033.21 1033.37 1033.66 1032.71 1032.02 1031.51 1031.26 1030.95 1031.28 1031.62 1033.60 1034.07 1033.28 1032.53 1031.80 1030.95 1030.18 1029.47 1028.87 1028.18 1027.29 1026.47 1025.47 1024.32 1022.84 1021.26 1019.39 1017.59 1016.51 1014.91 1012.99
1035.03 1035.24 1035.40 1035.51 1035.71 1035.93 1035.91 1035.66 1035.16 1034.78 1034.04 1033.98 1033.68 1033.21 1032.85 1032.56 1032.16 1031.73 1031.39 1031.40 1032.11 1032.81 1034.06 1033.85 1033.39 1032.67 1031.79 1031.08 1030.54 1029.97 1029.05 1027.97 1027.16 1026.13 1024.99 1023.63 1022.20 1020.49 1018.82 1016.62 1014.84 1013.28 1011.15
1035.00 1034.95 1035.08 1035.33 1035.58 1035.81 1035.94 1036.04 1036.01 1035.77 1035.41 1035.07 1034.50 1033.58 1033.44 1032.91 1032.37 1031.95 1031.97 1032.69 1032.89 1032.89 1033.42 1033.61 1033.00 1032.28 1031.59 1031.02 1030.40 1029.75 1028.66 1027.55 1026.48 1025.34 1024.20 1022.78 1021.27 1019.69 1017.48 1015.48 1013.38 1011.73 1009.88
1034.70 1034.87 1035.06 1035.47 1035.70 1035.77 1035.95 1036.10 1036.15 1036.24 1035.93 1035.81 1035.19 1034.15 1034.45 1033.34 1032.89 1032.76 1032.89 1033.78 1033.78 1033.27 1032.85 1032.68 1032.30 1031.93 1031.32 1030.69 1029.98 1029.13 1028.23 1026.99 1025.77 1024.69 1023.23 1021.63 1019.83 1018.27 1015.91 1014.06 1012.14 1010.14 1008.26
1034.20 1034.42 1034.78 1035.13 1035.60 1035.87 1035.91 1036.11 1036.21 1036.14 1036.05 1035.88 1035.61 1035.25 1034.67 1034.54 1033.85 1033.60 1033.77 1033.76 1033.62 1033.23 1032.74 1032.38 1031.83 1031.34 1030.79 1030.13 1029.30 1028.37 1027.24 1026.06 1024.89 1023.54 1021.84 1020.23 1018.36 1016.73 1014.55 1012.47 1010.41 1008.26 1006.17
1033.57 1033.98 1034.45 1035.21 1035.57 1035.49 1035.45 1035.57 1035.46 1035.77 1035.91 1035.84 1035.57 1034.86 1034.58 1034.44 1034.47 1034.15 1033.85 1033.37 1033.09 1032.67 1032.20 1031.80 1031.36 1030.84 1030.20 1029.39 1028.59 1027.65 1026.57 1025.30 1023.89 1022.24 1020.64 1018.76 1016.75 1014.71 1012.73 1010.81 1008.59 1006.53 1004.35
1033.05 1033.49 1034.05 1034.37 1034.46 1034.67 1034.57 1034.50 1034.74 1035.15 1035.29 1035.41 1034.87 1034.61 1034.52 1034.41 1034.15 1033.86 1033.45 1032.85 1032.25 1032.04 1031.67 1031.43 1030.85 1030.26 1029.55 1028.69 1027.77 1026.86 1025.78 1024.31 1022.51 1020.97 1019.19 1017.13 1015.03 1012.95 1010.91 1008.81 1006.59 1004.34 1001.99
1032.36 1032.84 1033.33 1033.56 1033.71 1033.83 1034.00 1033.99 1034.21 1034.50 1034.58 1034.53 1034.43 1034.36 1034.12 1033.92 1033.61 1033.16 1032.66 1032.02 1031.61 1031.27 1030.86 1030.79 1030.28 1029.29 1028.33 1027.45 1026.58 1025.88 1024.79 1022.93 1021.14 1019.70 1018.00 1015.68 1013.21 1011.16 1009.05 1006.78 1004.02 1001.30 999.35
1031.31 1031.64 1031.95 1032.33 1032.77 1033.02 1033.21 1033.29 1033.36 1033.45 1033.51 1033.63 1033.71 1033.60 1033.41 1033.15 1032.86 1032.37 1031.80 1031.28 1030.99 1030.50 1030.14 1029.76 1029.17 1028.43 1027.34 1026.22 1025.20 1024.14 1022.92 1021.33 1019.81 1018.34 1016.60 1014.04 1011.58 1009.05 1006.51 1004.02 1001.95 999.93 997.87
1030.18 1030.55 1030.93 1031.18 1031.52 1031.70 1031.80 1031.93 1032.16 1032.50 1032.79 1032.79 1032.69 1032.67 1032.40 1032.23 1031.97 1031.60 1031.07 1030.82 1030.44 1030.00 1029.40 1028.83 1028.17 1027.27 1026.24 1025.01 1023.88 1022.51 1021.03 1019.45 1018.32 1016.47 1014.01 1011.52 1008.95 1006.47 1004.53 1002.62 1000.48 998.16 995.88
1028.92 1029.26 1029.56 1029.89 1029.98 1030.09 1030.36 1030.58 1030.83 1031.22 1031.51 1031.50 1031.63 1031.70 1031.64 1031.49 1031.25 1031.01 1030.50 1030.28 1029.84 1029.32 1028.85 1028.07 1027.20 1026.27 1025.01 1023.77 1022.39 1020.85 1019.31 1017.65 1015.89 1013.51 1011.31 1009.05 1007.12 1004.87 1002.86 1000.96 998.75 996.54 993.94
Wind_Speed
15 12 12 13 18 16 19 18 17 18 19 19 17 20 20 18 17 18 17 15 16 14 13 13 13 11 8 7 7 6 6 4 2 3 2 6 8 8 7 8 10 10 9
15 12 12 14 18 20 20 19 17 19 18 17 18 19 18 18 17 18 18 14 15 15 13 14 13 9 9 7 6 4 5 3 2 6 7 5 6 8 7 11 9 10 10
14 11 11 14 19 23 21 18 18 17 18 18 19 18 18 17 17 17 16 14 14 13 12 12 8 8 8 4 3 4 3 4 1 3 6 5 7 7 10 9 10 9 9
12 13 12 16 21 20 20 19 19 18 19 19 19 17 16 16 14 15 14 12 12 12 12 11 9 6 6 5 6 7 6 4 4 4 6 6 7 8 8 10 9 8 10
12 14 14 17 20 20 21 19 17 18 16 15 16 16 15 15 11 12 11 11 10 9 7 7 7 9 16 14 6 7 7 6 6 6 6 7 7 9 10 9 11 12 10
13 11 12 17 19 19 18 17 16 16 14 14 14 13 13 10 21 20 13 9 8 7 6 5 6 8 11 14 13 12 10 8 8 7 7 9 10 9 9 10 11 12 10
12 12 16 17 18 15 16 16 14 13 13 14 14 13 12 12 20 18 17 9 8 7 8 7 7 8 8 7 11 12 10 13 10 9 9 9 11 11 12 13 13 12 13
14 14 11 13 14 15 15 13 12 11 12 11 12 12 13 12 18 16 14 8 8 9 8 10 9 9 11 9 9 9 8 7 6 7 8 10 10 11 11 11 14 15 13
9 9 10 12 13 12 13 11 9 11 12 11 10 12 13 13 18 16 9 7 9 10 9 9 9 6 16 18 7 9 9 8 6 17 20 22 22 22 18 10 9 10 15
8 10 10 11 12 12 11 10 7 10 11 8 11 10 10 9 18 20 13 6 6 5 6 6 12 13 16 16 7 8 9 9 10 10 11 14 16 14 20 9 9 11 13
8 10 11 11 11 9 9 8 9 8 7 7 8 8 9 8 12 16 13 6 6 5 5 5 5 17 18 17 16 7 12 12 12 8 9 9 10 10 9 9 9 10 14
9 10 11 10 8 7 7 7 5 5 7 7 7 5 4 6 10 14 14 15 11 4 5 5 6 17 17 16 12 19 18 13 5 6 7 9 10 10 11 12 15 15 15
10 9 8 7 7 6 5 6 6 5 2 2 3 4 4 3 4 8 12 11 10 1 4 11 15 16 16 11 15 16 8 5 6 7 9 10 9 12 14 14 15 17 19
8 6 4 6 5 5 4 3 2 2 2 4 3 2 2 4 4 2 3 2 6 5 6 5 10 12 12 11 6 8 6 6 7 8 9 11 11 11 13 12 14 15 16
5 4 4 3 2 2 2 2 2 1 4 3 2 2 1 3 4 9 9 3 2 8 4 3 3 3 6 6 6 6 6 7 8 8 10 12 13 13 14 14 14 16 17
5 3 1 2 2 2 1 2 4 5 7 7 5 2 2 7 12 12 13 15 13 13 4 2 5 5 7 8 9 10 9 10 10 11 12 12 14 15 16 16 15 15 17
5 5 3 3 3 3 1 2 1 4 3 4 6 5 8 9 12 13 14 16 12 7 1 2 3 6 7 8 8 8 11 11 12 10 12 13 14 15 19 17 17 16 18
4 5 5 4 4 3 3 3 2 2 1 3 5 4 10 12 13 14 17 10 4 3 3 2 5 6 7 7 8 9 11 11 11 11 12 14 14 15 17 18 18 20 19
6 4 4 3 3 3 2 2 2 3 2 2 3 4 5 13 12 10 10 2 3 6 5 5 4 6 7 7 8 9 11 12 12 13 13 14 15 15 18 18 19 28 27
4 6 5 4 2 2 3 3 2 1 1 2 2 3 4 4 4 4 2 2 3 5 5 5 7 6 7 8 9 10 11 12 12 12 14 15 16 16 18 20 20 21 22
6 5 7 3 4 4 3 4 3 2 2 2 4 3 12 0 4 4 6 5 5 6 6 6 7 7 7 8 9 10 11 12 13 14 15 16 17 18 19 19 21 22 22
6 6 5 7 5 5 4 3 3 3 3 3 4 4 13 2 4 5 6 6 6 6 6 6 7 7 8 9 10 11 12 14 14 14 16 17 18 19 19 21 22 22 22
6 6 5 4 4 3 3 3 3 3 4 4 3 5 3 4 5 5 7 7 6 6 6 4 7 8 8 9 10 11 12 15 15 15 17 19 20 20 20 21 22 22 23
8 8 8 7 5 5 5 5 4 5 5 5 4 5 5 5 6 7 7 7 6 6 6 6 7 10 11 12 11 11 12 14 14 16 24 21 21 25 22 22 23 27 25
9 9 9 8 8 8 6 7 6 5 5 5 5 4 5 5 6 6 7 6 6 6 8 8 7 10 13 18 19 22 22 26 21 25 20 24 27 30 26 22 26 26 29
11 10 9 8 8 8 8 7 7 6 6 6 5 5 5 5 6 6 6 6 6 6 9 8 10 14 18 17 20 23 26 28 26 31 24 20 22 23 22 27 34 24 26
Wind_Direction
42 39 50 72 77 78 76 75 72 75 71 73 74 74 71 72 70 76 74 72 75 75 66 66 60 54 52 39 54 52 54 37 9 323 332 346 348 342 350 346 330 326 334
51 43 53 74 83 77 73 73 74 76 75 78 76 77 78 74 73 76 78 68 71 69 69 64 56 45 48 37 35 37 45 31 17 311 311 332 328 330 347 325 331 327 321
52 50 62 76 81 75 75 73 71 74 75 72 74 71 71 73 75 70 74 75 69 63 59 54 49 42 38 22 24 22 19 357 290 291 300 321 334 330 331 322 323 313 310
54 58 65 69 72 75 73 69 68 68 69 70 69 72 73 71 74 73 68 66 66 62 55 46 33 33 56 33 33 32 14 352 348 322 322 333 322 333 320 321 318 316 316
64 63 58 69 73 73 72 70 69 69 69 70 77 73 71 70 62 66 69 68 63 61 55 62 44 32 44 35 35 24 4 7 353 348 332 324 330 336 333 324 317 317 313
61 71 69 70 71 68 71 70 70 71 71 71 68 74 82 85 87 86 82 84 75 74 66 46 41 26 34 34 28 21 15 4 5 351 333 325 327 318 313 317 316 322 317
74 70 65 64 68 72 72 67 64 67 73 72 73 71 70 75 79 80 83 82 74 64 59 46 37 20 16 53 23 11 6 359 3 356 328 320 314 311 313 318 316 308 301
57 60 71 84 78 70 70 68 66 66 70 66 66 70 76 70 69 70 78 82 82 69 48 34 18 8 359 24 18 359 349 336 341 339 325 310 296 302 307 307 299 298 288
74 75 65 68 74 75 75 69 63 69 63 63 56 52 57 60 65 60 63 59 50 44 36 18 355 354 4 0 20 349 335 331 339 331 326 320 315 313 307 305 290 301 301
76 76 73 72 74 70 66 65 70 71 68 65 62 49 46 39 54 50 45 45 51 36 24 3 2 1 359 357 30 340 327 351 342 330 315 314 312 293 302 288 286 291 296
76 76 72 70 73 71 73 64 65 74 73 68 72 55 44 33 34 44 45 43 39 26 358 346 340 348 357 358 4 325 338 355 332 305 298 294 293 293 297 289 278 277 287
71 71 64 58 63 58 63 63 66 76 75 55 43 44 32 19 39 26 32 32 32 5 352 336 321 349 348 351 355 345 351 335 276 286 294 299 304 305 306 301 290 276 266
71 62 60 60 68 67 71 65 61 44 67 95 72 31 14 342 281 26 22 13 3 55 5 347 342 345 347 342 328 336 345 306 315 311 306 299 299 297 295 290 288 281 277
85 83 73 84 71 50 60 75 117 132 76 77 80 55 319 322 310 269 237 270 357 26 4 332 339 341 337 333 317 327 307 305 301 299 301 302 301 302 297 296 295 300 298
99 92 85 83 87 91 79 126 60 179 144 152 171 172 190 298 319 356 353 340 28 347 19 359 308 321 331 322 313 311 315 314 313 308 307 305 301 301 299 304 298 299 291
122 121 120 108 69 76 67 22 31 93 72 55 73 129 244 334 347 345 347 345 359 358 30 323 326 332 325 327 329 325 320 315 312 311 306 300 301 302 301 301 294 293 293
145 155 157 151 159 158 166 135 127 331 330 8 12 16 9 350 349 347 349 352 343 24 40 283 297 312 314 317 315 310 304 302 302 295 296 297 297 295 300 297 296 293 292
170 166 168 173 163 158 170 179 161 159 230 292 310 353 0 355 353 355 353 1 336 328 208 258 304 307 306 303 305 301 296 297 295 295 296 293 293 289 293 291 292 292 292
172 178 166 153 183 190 170 172 191 185 200 258 321 330 345 340 337 354 5 106 298 315 315 307 273 284 292 294 293 290 287 288 290 294 289 289 289 290 289 288 288 293 291
184 174 170 171 172 198 199 194 192 170 308 320 320 285 313 348 348 328 299 274 282 278 286 281 289 278 280 286 289 290 290 290 291 289 288 288 287 286 287 289 290 292 291
184 174 173 164 196 207 197 199 187 158 249 272 259 253 298 349 309 291 305 301 289 290 284 285 291 285 285 284 285 284 284 286 285 286 288 288 288 289 289 288 290 290 289
182 186 181 198 190 202 205 196 195 214 230 246 281 295 312 335 289 286 283 277 274 264 266 269 278 276 277 278 282 282 283 284 286 287 287 289 290 289 289 291 291 289 286
184 179 185 202 203 203 213 218 221 225 247 247 252 276 276 269 266 266 271 276 278 282 277 250 265 281 276 273 269 268 274 279 283 288 288 288 289 290 291 290 288 301 302
190 192 197 204 197 211 218 227 221 224 233 244 250 253 261 265 268 270 272 277 281 281 275 267 268 269 283 284 282 276 272 274 279 284 284 283 287 290 288 300 303 302 301
198 198 200 201 202 211 219 224 227 228 240 241 252 247 253 257 268 270 276 280 282 288 288 280 276 277 280 285 285 285 283 284 285 280 282 284 291 299 302 302 303 304 303
200 203 204 203 207 209 213 220 225 221 233 241 237 247 253 264 267 274 283 285 288 293 290 288 286 283 286 290 288 288 292 296 298 297 299 303 306 304 305 306 307 305 306